Fremont, MI

12:41 AM EST on December 06, 2019 (GMT -0500)
Fremont

Weather History for KFFX - October, 2019

Change the Weather History Date:

Tuesday, October 22, 2019

  Actual Average (KMKG) Record (KMKG)
Temperature  
Mean Temperature 48 °F -  
Max Temperature 53 °F 56 °F 80 °F (1953)
Min Temperature 44 °F 38 °F 23 °F (1944)
Degree Days  
Heating Degree Days 16    
Moisture  
Dew Point 42 °F    
Average Humidity 79    
Maximum Humidity 100    
Minimum Humidity 62    
Precipitation  
Precipitation 0.00 in - - ()
Sea Level Pressure  
Sea Level Pressure 29.52 in    
Wind  
Wind Speed 13 mph ()    
Max Wind Speed 24 mph    
Max Gust Speed 40 mph    
Visibility 9.6 miles    
Events Rain    
Averages and records for this station are not official NWS values.
T = Trace of Precipitation, MM = Missing Value Source: Averaged Metar Reports

Daily Weather History Graph

Daily Weather History Graph

Search for Another Location

Airport or City:

Astronomy

Oct. 22, 2019 Rise Set
Actual Time 8:06 AM EDT 6:49 PM EDT
Civil Twilight 7:37 AM EDT 7:18 PM EDT
Nautical Twilight 7:03 AM EDT 7:52 PM EDT
Astronomical Twilight 6:30 AM EDT 8:25 PM EDT
Moon 1:00 AM EDT (10/22) 4:12 PM EDT (10/22)
Length of Visible Light 11h 41m
Length of Day
10h 43m
Last Quarter, 37% of the Moon is Illuminated
Oct 22
Last Quarter
Oct 27
New
Nov 4
First Quarter
Nov 12
Full
Nov 19
Last Quarter

Hourly Weather History & Observations

Time (EDT) Temp. Windchill Dew Point Humidity Pressure Visibility Wind Dir Wind Speed Gust Speed Precip Events Conditions
12:15 AM 53.6 °F - 40.8 °F 62% 29.54 in 10.0 mi SW 12.7 mph 19.6 mph N/A   Scattered Clouds
12:16 AM 53.4 °F - 40.8 °F 62% 29.54 in 10.0 mi SSW 11.5 mph 19.6 mph N/A   Scattered Clouds
12:35 AM 51.8 °F - 41.2 °F 67% 29.55 in 10.0 mi SSW 15.0 mph 21.9 mph N/A   Scattered Clouds
12:36 AM 52.0 °F - 41.0 °F 66% 29.54 in 10.0 mi SW 13.8 mph 21.9 mph N/A   Scattered Clouds
12:55 AM 52.0 °F - 40.1 °F 64% 29.54 in 10.0 mi SW 12.7 mph 16.1 mph N/A   Scattered Clouds
1:18 AM 50.2 °F - 40.3 °F 69% 29.53 in 10.0 mi SSW 8.1 mph - N/A   Clear
1:36 AM 50.5 °F - 40.1 °F 67% 29.53 in 10.0 mi South 6.9 mph - N/A   Clear
1:55 AM 50.5 °F - 40.1 °F 67% 29.52 in 10.0 mi South 6.9 mph - N/A   Scattered Clouds
1:56 AM 50.4 °F - 40.1 °F 68% 29.52 in 10.0 mi South 8.1 mph - N/A   Scattered Clouds
2:15 AM 51.1 °F - 40.1 °F 66% 29.52 in 10.0 mi South 6.9 mph - N/A   Scattered Clouds
2:16 AM 50.9 °F - 40.1 °F 67% 29.52 in 10.0 mi South 6.9 mph - N/A   Scattered Clouds
2:39 AM 50.5 °F - 40.5 °F 68% 29.52 in 10.0 mi South 8.1 mph - N/A   Clear
2:57 AM 51.3 °F - 40.5 °F 67% 29.51 in 10.0 mi South 8.1 mph 16.1 mph N/A   Clear
3:15 AM 51.1 °F - 40.5 °F 67% 29.51 in 10.0 mi South 6.9 mph - N/A   Scattered Clouds
3:16 AM 51.1 °F - 40.5 °F 67% 29.51 in 10.0 mi South 6.9 mph - N/A   Scattered Clouds
3:35 AM 51.3 °F - 40.8 °F 67% 29.51 in 10.0 mi South 6.9 mph - N/A   Mostly Cloudy
3:36 AM 51.3 °F - 40.8 °F 67% 29.51 in 10.0 mi South 8.1 mph - N/A   Mostly Cloudy
3:55 AM 51.3 °F - 41.0 °F 68% 29.50 in 10.0 mi SE 8.1 mph - N/A   Overcast
4:00 AM 49.8 °F - 41.4 °F 73% 29.50 in 10.0 mi SE 6.9 mph - N/A   Overcast
4:18 AM 49.6 °F - 41.9 °F 75% 29.48 in 10.0 mi SSE 5.8 mph - N/A   Overcast
4:36 AM 50.0 °F - 41.9 °F 74% 29.48 in 10.0 mi South 6.9 mph - N/A   Overcast
4:55 AM 50.2 °F - 41.9 °F 73% 29.47 in 10.0 mi South 6.9 mph - N/A   Overcast
5:15 AM 50.0 °F - 41.9 °F 74% 29.47 in 10.0 mi SSE 8.1 mph - N/A   Overcast
5:20 AM 50.0 °F - 41.4 °F 72% 29.47 in 10.0 mi South 9.2 mph - N/A   Overcast
5:38 AM 50.9 °F - 41.0 °F 69% 29.46 in 10.0 mi South 6.9 mph 16.1 mph N/A   Overcast
5:56 AM 50.5 °F - 40.8 °F 69% 29.46 in 10.0 mi South 10.4 mph 16.1 mph N/A   Overcast
6:15 AM 50.4 °F - 40.8 °F 70% 29.46 in 10.0 mi South 9.2 mph 19.6 mph N/A   Overcast
6:16 AM 50.4 °F - 40.8 °F 70% 29.46 in 10.0 mi South 9.2 mph 19.6 mph N/A   Overcast
6:35 AM 50.5 °F - 41.0 °F 70% 29.45 in 10.0 mi South 12.7 mph 17.3 mph N/A   Overcast
6:36 AM 50.5 °F - 41.0 °F 70% 29.45 in 10.0 mi South 11.5 mph 17.3 mph N/A   Overcast
6:59 AM 52.3 °F - 40.6 °F 64% 29.44 in 10.0 mi SSW 21.9 mph 36.8 mph N/A   Overcast
7:17 AM 51.8 °F - 40.3 °F 65% 29.44 in 10.0 mi SSW 19.6 mph 32.2 mph N/A   Mostly Cloudy
7:35 AM 51.8 °F - 40.3 °F 65% 29.43 in 10.0 mi SSW 20.7 mph 25.3 mph N/A   Mostly Cloudy
7:36 AM 51.8 °F - 40.3 °F 65% 29.43 in 10.0 mi SSW 19.6 mph 25.3 mph N/A   Mostly Cloudy
7:55 AM 51.8 °F - 40.1 °F 64% 29.43 in 10.0 mi SSW 18.4 mph 32.2 mph N/A   Overcast
7:56 AM 51.8 °F - 40.1 °F 64% 29.43 in 10.0 mi SSW 17.3 mph 32.2 mph N/A   Overcast
8:15 AM 52.0 °F - 40.5 °F 65% 29.42 in 10.0 mi SSW 20.7 mph 32.2 mph N/A   Overcast
8:20 AM 51.3 °F - 41.9 °F 70% 29.43 in 10.0 mi SSW 19.6 mph 40.3 mph N/A Rain Light Rain
8:38 AM 49.8 °F - 44.6 °F 82% 29.43 in 10.0 mi SSW 21.9 mph 34.5 mph N/A Rain Light Rain
8:56 AM 49.8 °F - 43.0 °F 77% 29.43 in 10.0 mi SSW 21.9 mph 34.5 mph N/A   Mostly Cloudy
9:15 AM 49.1 °F - 45.5 °F 87% 29.43 in 7.0 mi SSW 18.4 mph 27.6 mph N/A Rain Light Rain
9:16 AM 49.1 °F - 45.9 °F 89% 29.43 in 7.0 mi SSW 16.1 mph 27.6 mph N/A Rain Light Rain
9:35 AM 50.0 °F - 44.6 °F 82% 29.43 in 10.0 mi SSW 17.3 mph 26.5 mph N/A Rain Light Rain
9:36 AM 50.0 °F - 44.4 °F 81% 29.43 in 10.0 mi SSW 19.6 mph 27.6 mph N/A Rain Light Rain
9:59 AM 50.4 °F - 41.9 °F 73% 29.44 in 10.0 mi SSW 21.9 mph 29.9 mph N/A Rain Rain
10:17 AM 49.6 °F - 43.9 °F 81% 29.44 in 7.0 mi SSW 24.2 mph 32.2 mph N/A Rain Heavy Rain
10:35 AM 49.1 °F - 47.5 °F 94% 29.44 in 7.0 mi SW 20.7 mph 29.9 mph N/A Rain Light Rain
10:55 AM 49.5 °F - 43.2 °F 79% 29.44 in 10.0 mi SW 20.7 mph 29.9 mph N/A   Overcast
11:15 AM 50.4 °F - 42.1 °F 73% 29.44 in 10.0 mi SW 17.3 mph 27.6 mph N/A   Overcast
11:38 AM 50.2 °F - 41.0 °F 71% 29.45 in 10.0 mi WSW 18.4 mph 38.0 mph N/A   Overcast
11:56 AM 48.7 °F - 46.6 °F 92% 29.46 in 7.0 mi SW 23.0 mph 28.8 mph N/A Rain Rain
12:15 PM 48.2 °F - 47.8 °F 99% 29.47 in 10.0 mi SW 13.8 mph 25.3 mph N/A Rain Rain
12:16 PM 48.2 °F - 47.8 °F 99% 29.47 in 10.0 mi SW 15.0 mph 25.3 mph N/A   Drizzle
12:35 PM 48.7 °F - 42.1 °F 78% 29.47 in 10.0 mi SW 15.0 mph 25.3 mph N/A   Overcast
12:59 PM 49.3 °F - 41.2 °F 74% 29.47 in 10.0 mi SW 20.7 mph 27.6 mph N/A   Overcast
1:17 PM 49.1 °F - 40.6 °F 73% 29.48 in 10.0 mi SW 17.3 mph 35.7 mph N/A   Overcast
1:35 PM 49.3 °F - 40.6 °F 72% 29.48 in 10.0 mi SW 23.0 mph 29.9 mph N/A   Overcast
1:36 PM 49.3 °F - 40.8 °F 73% 29.48 in 10.0 mi SW 20.7 mph 29.9 mph N/A   Overcast
1:55 PM 48.4 °F - 45.3 °F 89% 29.49 in 7.0 mi SW 15.0 mph 28.8 mph N/A Rain Light Rain
1:56 PM 48.4 °F - 45.9 °F 91% 29.49 in 7.0 mi SW 15.0 mph 26.5 mph N/A Rain Light Rain
2:15 PM 48.6 °F - 43.0 °F 81% 29.49 in 10.0 mi SW 18.4 mph 26.5 mph N/A   Overcast
2:20 PM 48.7 °F - 42.8 °F 80% 29.49 in 10.0 mi SW 18.4 mph 26.5 mph N/A   Overcast
2:38 PM 48.7 °F - 41.5 °F 76% 29.50 in 10.0 mi WSW 19.6 mph 28.8 mph N/A   Overcast
2:56 PM 48.9 °F - 40.5 °F 73% 29.50 in 10.0 mi SW 21.9 mph 31.1 mph N/A   Overcast
3:16 PM 46.9 °F - 46.8 °F 99% 29.51 in 5.0 mi WSW 13.8 mph 35.7 mph N/A Rain Rain
3:36 PM 47.3 °F - 46.8 °F 98% 29.52 in 10.0 mi SW 12.7 mph 27.6 mph N/A   Overcast
3:59 PM 47.5 °F - 44.6 °F 90% 29.53 in 10.0 mi SW 19.6 mph 25.3 mph N/A   Overcast
4:17 PM 47.5 °F - 42.6 °F 83% 29.53 in 10.0 mi WSW 19.6 mph 28.8 mph N/A   Light Drizzle
4:35 PM 47.7 °F - 42.4 °F 82% 29.54 in 10.0 mi WSW 17.3 mph 31.1 mph N/A Rain Rain
4:55 PM 46.9 °F - 46.4 °F 98% 29.55 in 10.0 mi SW 16.1 mph 26.5 mph N/A Rain Light Rain
5:15 PM 47.3 °F - 45.7 °F 94% 29.56 in 10.0 mi SW 13.8 mph 26.5 mph N/A   Overcast
5:38 PM 47.7 °F - 41.0 °F 78% 29.56 in 10.0 mi WSW 19.6 mph 25.3 mph N/A   Overcast
5:56 PM 47.5 °F - 40.1 °F 76% 29.57 in 10.0 mi WSW 20.7 mph 26.5 mph N/A   Overcast
6:15 PM 47.5 °F - 39.4 °F 73% 29.57 in 10.0 mi WSW 18.4 mph 25.3 mph N/A   Overcast
6:35 PM 47.7 °F - 39.4 °F 73% 29.58 in 10.0 mi WSW 17.3 mph 27.6 mph N/A   Light Drizzle
6:59 PM 47.7 °F - 39.9 °F 75% 29.60 in 10.0 mi WSW 13.8 mph 26.5 mph N/A   Overcast
7:17 PM 47.7 °F - 39.4 °F 73% 29.60 in 10.0 mi SW 12.7 mph 24.2 mph N/A Rain Light Rain
7:35 PM 46.9 °F - 41.9 °F 83% 29.61 in 10.0 mi WSW 19.6 mph 31.1 mph N/A Rain Light Rain
7:36 PM 46.9 °F - 42.3 °F 84% 29.61 in 10.0 mi WSW 19.6 mph 31.1 mph N/A Rain Light Rain
7:55 PM 46.9 °F - 41.7 °F 82% 29.62 in 10.0 mi WSW 20.7 mph 25.3 mph N/A   Overcast
7:56 PM 46.9 °F - 41.4 °F 81% 29.62 in 10.0 mi WSW 18.4 mph 25.3 mph N/A   Overcast
8:15 PM 47.3 °F - 40.3 °F 77% 29.62 in 10.0 mi SW 20.7 mph 28.8 mph N/A Rain Rain
8:38 PM 46.6 °F - 43.7 °F 90% 29.64 in 10.0 mi WSW 18.4 mph 31.1 mph N/A Rain Rain
9:15 PM 45.1 °F 41.4 °F 45.1 °F 100% 29.64 in 7.0 mi West 6.9 mph - N/A Rain Rain
9:35 PM 45.1 °F 39.5 °F 45.1 °F 100% 29.65 in 10.0 mi West 11.5 mph 20.7 mph N/A Rain Light Rain
9:36 PM 45.3 °F 39.0 °F 45.1 °F 99% 29.65 in 10.0 mi West 13.8 mph 20.7 mph N/A Rain Light Rain
9:59 PM 45.5 °F 39.9 °F 45.5 °F 100% 29.65 in 10.0 mi WSW 11.5 mph 17.3 mph N/A Rain Light Rain
10:17 PM 45.0 °F 37.6 °F 44.4 °F 98% 29.65 in 5.0 mi West 17.3 mph 25.3 mph N/A Rain Light Rain
10:35 PM 44.6 °F 37.8 °F 44.2 °F 99% 29.66 in 10.0 mi WNW 15.0 mph 32.2 mph N/A Rain Light Rain
10:55 PM 44.1 °F 37.7 °F 44.1 °F 100% 29.66 in 10.0 mi West 12.7 mph 18.4 mph N/A Rain Light Rain
11:15 PM 44.8 °F 40.4 °F 44.8 °F 100% 29.66 in 10.0 mi WSW 8.1 mph - N/A Rain Light Rain
11:20 PM 45.0 °F 40.6 °F 45.0 °F 100% 29.66 in 10.0 mi WSW 8.1 mph 16.1 mph N/A Rain Rain
11:38 PM 45.1 °F 39.1 °F 45.1 °F 100% 29.67 in 10.0 mi West 12.7 mph 17.3 mph N/A   Drizzle
11:56 PM 44.8 °F 37.7 °F 44.8 °F 100% 29.66 in 7.0 mi WNW 16.1 mph 24.2 mph N/A Rain Light Rain